Tracking 19193 objects as of 23-Jun-2018
HD Live streaming from Space Station
objects crossing your sky now

FENGYUN 1C DEB

Track FENGYUN 1C DEB now!
10-day predictions


NORAD ID: 31779
Int'l Code: 1999-025CGE
Perigee: 616.4 km
Apogee: 947.4 km
Inclination: 99.4 °
Period: 100.3 minutes
Semi major axis: 7152 km
RCS: 0.0178 m2 (small)
Launch date: May 10, 1999
Source: People's Republic of China (PRC)
Launch site: Taiyaun Space Center, China (TSC)

Note: This is SATELLITE DEBRIS
aabbcc
Your satellite tracking list
Your tracking list is empty




NASA's NSSDC Master Catalog

Two Line Element Set (TLE):
1 31779U 99025CGE 18173.24518813 +.00000171 +00000-0 +60561-4 0  9995
2 31779 099.3760 185.2810 0231346 202.9046 156.1688 14.35091353578009
Source of the keplerian elements: AFSPC